Location: Buckeye Ditch
(40.9104°N, 122.9517°W)
Time: 13:32:29
(UTC+00:00)

Transit 2A Rocket - Pass Details

Date: 28 May 2025
Orbit: 590 x 896 km, 66.7° (Epoch: 15 June)

Event Time Altitude Azimuth Distance (km) Brightness Sun altitude
Rises 04:01:09 0° 304° (NW) 3,022 11.2 -5.2°
Reaches altitude 10° 04:05:50 10° 262° (W) 2,193 8.1 -5.9°
Maximum altitude 04:06:27 10° 255° (WSW) 2,190 8.0 -6.0°
Drops below altitude 10° 04:07:05 10° 248° (WSW) 2,217 7.9 -6.1°
Sets 04:12:04 0° 207° (SSW) 3,236 8.1 -6.9°
